• MPC Preparation (Info)

  • MPEC 2015-T111: 2015 TC179

    The following Minor Planet Electronic Circular may be linked-to from your own Web pages, but must not otherwise be redistributed electronically.

    A form allowing access to any MPEC is at the bottom of this page.


    Read MPEC 2015-T110 Read MPEC 2015-T112


    M.P.E.C. 2015-T111                               Issued 2015 Oct. 14, 15:00 UT
    
         The Minor Planet Electronic Circulars contain information on unusual
             minor planets and routine data on comets.  They are published
        on behalf of Division F of the International Astronomical Union by the
              Minor Planet Center, Smithsonian Astrophysical Observatory,
                              Cambridge, MA 02138, U.S.A.
    
                 Prepared using the Tamkin Foundation Computer Network
    
                                  MPC@CFA.HARVARD.EDU
                URL https://www.minorplanetcenter.net/    ISSN 1523-6714
    
                                      2015 TC179
    
    Observations:
         K15TH9C* C2015 10 13.40913 02 05 55.287-05 30 24.12         19.4 wLET111F51
         K15TH9C  C2015 10 13.42326 02 06 05.777-05 28 49.92         19.6 wLET111F51
         K15TH9C  C2015 10 13.43738 02 06 16.198-05 27 15.62         19.7 wLET111F51
         K15TH9C  C2015 10 13.45149 02 06 26.621-05 25 41.23         20.0 wLET111F51
         K15TH9C KC2015 10 13.89685 02 12 52.36 -04 36 54.8          18.8 VqET111I93
         K15TH9C KC2015 10 13.90419 02 12 58.20 -04 36 05.6          19.2 VqET111I93
         K15TH9C KC2015 10 13.91154 02 13 03.99 -04 35 15.7          19.7 VqET111I93
         K15TH9C KC2015 10 14.02077 02 14 28.57 -04 23 16.3                qET111J95
         K15TH9C KC2015 10 14.02841 02 14 34.47 -04 22 24.9                qET111J95
         K15TH9C KC2015 10 14.03624 02 14 40.54 -04 21 31.1          19.3 RqET111J95
         K15TH9C  C2015 10 14.21289102 17 20.63 -04 00 21.4          19.4 VtET111H01
         K15TH9C  C2015 10 14.21624102 17 23.22 -03 59 59.0          19.3 VtET111H01
         K15TH9C  C2015 10 14.22998202 17 33.82 -03 58 25.5          19.0 VtET111H01
         K15TH9C  C2015 10 14.23342802 17 36.48 -03 58 02.1          19.0 VtET111H01
         K15TH9C KC2015 10 14.26511902 17 55.62 -03 54 47.7          19.5 VuET111H21
         K15TH9C KC2015 10 14.26757602 17 57.47 -03 54 31.2          19.5 VuET111H21
         K15TH9C KC2015 10 14.26995302 17 59.27 -03 54 14.9          19.5 VuET111H21
         K15TH9C KC2015 10 14.27233002 18 01.08 -03 53 58.5          19.6 VuET111H21
         K15TH9C KC2015 10 14.33005 02 18 46.76 -03 47 19.9          19.3 RqET111H36
         K15TH9C KC2015 10 14.33952 02 18 53.92 -03 46 14.0          19.6 RqET111H36
         K15TH9C  C2015 10 14.35819 02 19 11.70 -03 43 38.6          19.8 RuET111926
         K15TH9C KC2015 10 14.35845 02 19 08.28 -03 44 03.6          19.4 RqET111H36
         K15TH9C  C2015 10 14.36157 02 19 14.21 -03 43 15.7          19.7 RuET111926
         K15TH9C  C2015 10 14.36495 02 19 16.75 -03 42 52.6          19.4 RuET111926
         K15TH9C KC2015 10 14.36790 02 19 15.52 -03 42 58.8          18.9 RqET111H36
         K15TH9C  C2015 10 14.43691 02 20 11.10 -03 34 35.6          20.3 RuET111926
         K15TH9C  C2015 10 14.44030 02 20 13.66 -03 34 12.4          20.5 RuET111926
         K15TH9C  C2015 10 14.44367 02 20 16.31 -03 33 48.8          20.2 RuET111926
    
    Observer details:
    926 Tenagra II Observatory.  Observers M. Schwartz, P. R. Holvorcem.  Measurer
        M. Schwartz.  0.41-m f/3.75 astrograph + CCD, 0.81-m f/7 Ritchey-Chretien
        + CCD.
    F51 Pan-STARRS 1, Haleakala.  Observers B. Gibson, T. Goggia, N. Primak,
        A. Schultz, M. Willman.  Measurers K. Chambers, S. Chastel, L. Denneau,
        H. Flewelling, M. Huber, E. Lilly, E. Magnier, R. Wainscoat, C. Waters,
        R. Weryk.  1.8-m Ritchey-Chretien + CCD.
    H01 Magdalena Ridge Observatory, Socorro.  Observers W. H. Ryan, E. V. Ryan.
        Measurer W. H. Ryan.  2.4-m f/8.9 reflector + CCD.
    H21 Astronomical Research Observatory, Westfield.  Observers T. Linder,
        R. Holmes.  Measurers T. Linder, R. Holmes, L. Buzzi, S. Foglia.  0.76-m
        f/3.0 astrograph + CCD.
    H36 Sandlot Observatory, Scranton.  Observer G. Hug.  0.56-m reflector + CCD.
    I93 St Pardon de Conques.  Observer F. Losse.  0.40-m f/3.7 reflector + CCD.
    J95 Great Shefford.  Observer P. Birtwhistle.  0.40-m f/6.0 Schmidt-Cassegrain
        + CCD.
    
    Orbital elements:
    2015 TC179                                               Earth MOID = 0.0298 AU
    Epoch 2016 Jan. 13.0 TT = JDT 2457400.5                 MPC
    M  45.69773              (2000.0)            P               Q
    n   0.54489057     Peri.  340.17449     +0.88173624     -0.47152438
    a   1.4845558      Node    47.96728     +0.43538040     +0.80168226
    e   0.3091220      Incl.    1.10712     +0.18161804     +0.36738306
    P   1.81           H   26.1           G   0.15           U   6
    Residuals in seconds of arc
    151013 F51  0.0   0.1+    151014 H01  0.1+  0.1+    151014 926  0.0   0.4+
    151013 F51  0.2+  0.1+    151014 H01  0.0   0.3-    151014 H36  0.4-  0.4+
    151013 F51  0.2-  0.0     151014 H01  0.2-  0.0     151014 926  0.3-  0.1+
    151013 F51  0.0   0.1-    151014 H01  0.1-  0.0     151014 926  0.1-  0.1-
    151013 I93  0.4-  0.0     151014 H21  0.1+  0.1+    151014 H36  0.0   0.0
    151013 I93  0.1+  0.1-    151014 H21  0.0   0.2-    151014 926  0.0   0.0
    151013 I93  0.0   0.3+    151014 H21  0.1-  0.2-    151014 926  0.5-  0.3-
    151014 J95  0.2+  0.3+    151014 H21  0.1+  0.1-    151014 926  0.5+  0.1-
    151014 J95  0.1-  0.4-    151014 H36  0.6+  0.2-
    151014 J95  0.1-  0.0     151014 H36  0.2+  0.5+
    
    Ephemeris:
    2015 TC179               a,e,i = 1.48, 0.31, 1                   q = 1.0256
    Date    TT    R. A. (2000) Decl.     Delta      r     Elong.  Phase     V
    2015 09 14    22 30 45.0 -22 49 29   0.08179 1.0817   156.7    21.6    21.9
    ...
    2015 09 29    23 29 52.7 -21 08 54   0.04907 1.0462   153.8    25.1    20.8
    ...
    2015 10 07    00 42 00.9 -15 21 08   0.03660 1.0340   159.4    19.9    20.0
    ...
    2015 10 13    02 00 03.6 -06 13 53   0.03195 1.0283   161.5    17.9    19.6
    2015 10 14    02 14 09.2 -04 21 55   0.03172 1.0277   160.7    18.7    19.6
    2015 10 15    02 28 15.3 -02 27 20   0.03166 1.0271   159.5    19.9    19.7
    ...
    2015 10 21    03 46 41.3 +08 24 49   0.03470 1.0255   148.8    30.2    20.2
    ...
    2015 10 29    04 59 27.3 +17 46 38   0.04535 1.0282   139.2    39.1    21.0
    ...
    2015 11 13    05 56 55.7 +24 44 09   0.07361 1.0478   140.7    36.7    22.0
    
    A. U. Tomatic                (C) Copyright 2015 MPC           M.P.E.C. 2015-T111
    

    Read MPEC 2015-T110 Read MPEC 2015-T112


    MPEC number:

    Enter an MPEC number in one of the following forms:

    • 1997-B01 (the full form)
    • J97B01 (the packed version of the full form)
    • B01 (the abbreviated form)